Location: Hoyos del Collado
(40.3594°N, 5.2003°W)
Time: 12:48:42
(UTC+00:00)

Cosmos 2100 Rocket - Pass Details

Date: 18 April 2024
Orbit: 955 x 1000 km, 82.9° (Epoch: 21 May)

Event Time Altitude Azimuth Distance (km) Brightness Sun altitude
Rises 21:46:04 0° 358° (N) 3,725 7.7 -27.3°
Reaches altitude 10° 21:48:44 10° 4° (N) 2,768 6.9 -27.7°
Enters shadow 21:54:17 46° 62° (ENE) 1,310 4.5 -28.4°
